| time (UTC) | temp F | wind direction | speed MPH | gust MPH | rain 1hr in | rain 24hr in | rain mn in | humidity % | barometer mb |
| 20260505231603 | 70 | 321 | 2.0 | 9.0 | 0.00 | 0.20 | 0.17 | 46 | 1014.3 |
| 20260505230044 | 69 | 158 | 1.0 | 8.0 | 0.00 | 0.20 | 0.17 | 48 | 1014.2 |
| 20260505224540 | 68 | 225 | 0.0 | 9.0 | 0.00 | 0.20 | 0.17 | 49 | 1014.3 |
| 20260505223048 | 69 | 206 | 3.0 | 9.0 | 0.00 | 0.20 | 0.17 | 45 | 1014.5 |
| 20260505221548 | 68 | 231 | 5.0 | 13.0 | 0.00 | 0.20 | 0.17 | 46 | 1014.6 |
| 20260505220048 | 70 | 250 | 3.0 | 12.0 | 0.00 | 0.20 | 0.17 | 44 | 1014.6 |
| 20260505214552 | 70 | 192 | 4.0 | 10.0 | 0.00 | 0.20 | 0.17 | 46 | 1014.8 |
| 20260505213042 | 69 | 207 | 4.0 | 10.0 | 0.00 | 0.20 | 0.17 | 48 | 1014.9 |
| 20260505211545 | 69 | 132 | 4.0 | 11.0 | 0.00 | 0.20 | 0.17 | 48 | 1014.9 |
| 20260505210046 | 70 | 180 | 5.0 | 11.0 | 0.00 | 0.20 | 0.17 | 48 | 1015.0 |
| 20260505204543 | 68 | 157 | 4.0 | 14.0 | 0.00 | 0.20 | 0.17 | 52 | 1014.9 |
| 20260505203107 | 69 | 191 | 4.0 | 12.0 | 0.00 | 0.20 | 0.17 | 53 | 1014.9 |
| 20260505201545 | 68 | 192 | 6.0 | 12.0 | 0.00 | 0.20 | 0.17 | 54 | 1014.9 |
| 20260505200047 | 68 | 134 | 6.0 | 16.0 | 0.00 | 0.20 | 0.17 | 55 | 1015.1 |
| 20260505194540 | 70 | 200 | 3.0 | 15.0 | 0.00 | 0.20 | 0.17 | 54 | 1015.0 |
| 20260505193044 | 68 | 182 | 4.0 | 11.0 | 0.00 | 0.20 | 0.17 | 54 | 1015.1 |
| 20260505191547 | 69 | 303 | 3.0 | 8.0 | 0.00 | 0.20 | 0.17 | 50 | 1015.1 |
| 20260505190043 | 69 | 299 | 2.0 | 5.0 | 0.00 | 0.20 | 0.17 | 52 | 1015.2 |
| 20260505184540 | 70 | 248 | 2.0 | 8.0 | 0.00 | 0.20 | 0.17 | 52 | 1015.2 |
| 20260505183048 | 70 | 235 | 2.0 | 8.0 | 0.00 | 0.20 | 0.17 | 51 | 1015.2 |
| 20260505181543 | 68 | 342 | 1.0 | 5.0 | 0.00 | 0.20 | 0.17 | 55 | 1015.1 |
| 20260505180051 | 68 | 192 | 2.0 | 7.0 | 0.00 | 0.20 | 0.17 | 57 | 1015.1 |
| 20260505174543 | 67 | 273 | 2.0 | 7.0 | 0.00 | 0.20 | 0.17 | 58 | 1014.9 |
| 20260505173040 | 66 | 204 | 2.0 | 11.0 | 0.00 | 0.20 | 0.17 | 61 | 1014.7 |
| 20260505171547 | 65 | 242 | 1.0 | 6.0 | 0.00 | 0.20 | 0.17 | 66 | 1014.7 |
| 20260505164544 | 63 | 230 | 2.0 | 7.0 | 0.00 | 0.20 | 0.17 | 74 | 1014.6 |
| 20260505163043 | 62 | 269 | 1.0 | 4.0 | 0.00 | 0.20 | 0.17 | 81 | 1014.6 |
| 20260505161540 | 61 | 148 | 1.0 | 5.0 | 0.00 | 0.20 | 0.17 | 85 | 1014.3 |
| 20260505153047 | 59 | 269 | 0.0 | 6.0 | 0.00 | 0.20 | 0.17 | 88 | 1014.3 |
| 20260505151556 | 58 | 0 | 0.0 | 3.0 | 0.00 | 0.20 | 0.17 | 89 | 1014.2 |
| 20260505124556 | 55 | 28 | 0.0 | 1.0 | 0.00 | 0.20 | 0.17 | 88 | 1013.6 |
| 20260505123055 | 55 | 0 | 0.0 | 0.0 | 0.00 | 0.20 | 0.17 | 89 | 1013.5 |
| 20260505121538 | 55 | 0 | 0.0 | 1.0 | 0.00 | 0.20 | 0.17 | 88 | 1013.4 |
| 20260505120042 | 55 | 0 | 0.0 | 1.0 | 0.02 | 0.20 | 0.17 | 88 | 1013.6 |
| 20260505114545 | 55 | 0 | 0.0 | 2.0 | 0.13 | 0.20 | 0.17 | 88 | 1013.5 |
| 20260505113043 | 56 | 0 | 0.0 | 1.0 | 0.13 | 0.20 | 0.17 | 88 | 1013.6 |
| 20260505111543 | 56 | 0 | 0.0 | 4.0 | 0.13 | 0.20 | 0.17 | 88 | 1013.7 |
| 20260505101552 | 57 | 0 | 0.0 | 3.0 | 0.02 | 0.07 | 0.04 | 87 | 1013.7 |
| 20260505100053 | 57 | 0 | 0.0 | 1.0 | 0.01 | 0.06 | 0.03 | 87 | 1013.7 |
| 20260505094539 | 57 | 0 | 0.0 | 2.0 | 0.01 | 0.06 | 0.03 | 87 | 1013.8 |
| 20260505093041 | 57 | 184 | 0.0 | 3.0 | 0.01 | 0.06 | 0.03 | 86 | 1014.0 |
| 20260505091544 | 57 | 0 | 0.0 | 3.0 | 0.01 | 0.05 | 0.02 | 86 | 1014.3 |
| 20260505090056 | 57 | 185 | 0.0 | 2.0 | 0.01 | 0.05 | 0.02 | 86 | 1014.2 |
| 20260505084547 | 57 | 126 | 0.0 | 2.0 | 0.02 | 0.05 | 0.02 | 86 | 1014.5 |
| 20260505083040 | 57 | 141 | 0.0 | 2.0 | 0.02 | 0.05 | 0.02 | 85 | 1014.5 |
| 20260505081544 | 57 | 0 | 0.0 | 2.0 | 0.01 | 0.04 | 0.01 | 85 | 1014.7 |
| 20260505080039 | 57 | 0 | 0.0 | 0.0 | 0.01 | 0.04 | 0.01 | 85 | 1014.8 |
| 20260505074543 | 57 | 0 | 0.0 | 0.0 | 0.01 | 0.03 | 0.00 | 84 | 1015.0 |
| 20260505073044 | 57 | 0 | 0.0 | 0.0 | 0.02 | 0.03 | 0.00 | 84 | 1015.1 |
| 20260505071542 | 57 | 0 | 0.0 | 0.0 | 0.02 | 0.03 | 0.00 | 84 | 1015.1 |
| 20260505070044 | 57 | 0 | 0.0 | 2.0 | 0.03 | 0.03 | 0.00 | 83 | 1015.1 |
| 20260505064537 | 57 | 0 | 0.0 | 1.0 | 0.02 | 0.02 | 0.02 | 83 | 1015.1 |
| 20260505063046 | 58 | 0 | 0.0 | 3.0 | 0.01 | 0.01 | 0.01 | 82 | 1015.1 |
| 20260505061546 | 59 | 148 | 2.0 | 5.0 | 0.01 | 0.01 | 0.01 | 81 | 1015.1 |
| 20260505060042 | 60 | 0 | 1.0 | 4.0 | 0.00 | 0.00 | 0.00 | 79 | 1015.1 |
| 20260505054544 | 60 | 196 | 1.0 | 4.0 | 0.00 | 0.00 | 0.00 | 79 | 1015.1 |
| 20260505053045 | 60 | 168 | 0.0 | 3.0 | 0.00 | 0.00 | 0.00 | 79 | 1015.2 |
| 20260505051537 | 60 | 188 | 0.0 | 3.0 | 0.00 | 0.00 | 0.00 | 79 | 1015.3 |
| 20260505041544 | 59 | 0 | 0.0 | 2.0 | 0.00 | 0.00 | 0.00 | 78 | 1015.6 |
| 20260505040049 | 59 | 186 | 0.0 | 4.0 | 0.00 | 0.00 | 0.00 | 78 | 1015.4 |
| 20260505034544 | 60 | 202 | 1.0 | 4.0 | 0.00 | 0.00 | 0.00 | 77 | 1015.4 |
| 20260505033104 | 60 | 0 | 1.0 | 7.0 | 0.00 | 0.00 | 0.00 | 76 | 1015.2 |
| 20260505031541 | 60 | 0 | 1.0 | 5.0 | 0.00 | 0.00 | 0.00 | 76 | 1015.1 |
| 20260505030038 | 60 | 243 | 2.0 | 8.0 | 0.00 | 0.00 | 0.00 | 74 | 1015.1 |
| 20260505024544 | 61 | 198 | 3.0 | 9.0 | 0.00 | 0.00 | 0.00 | 73 | 1015.0 |
| 20260505023056 | 61 | 240 | 2.0 | 7.0 | 0.00 | 0.00 | 0.00 | 71 | 1015.2 |
| 20260505021542 | 62 | 229 | 2.0 | 8.0 | 0.00 | 0.00 | 0.00 | 70 | 1015.0 |
| 20260505020048 | 63 | 200 | 2.0 | 11.0 | 0.00 | 0.00 | 0.00 | 69 | 1014.9 |
| 20260505014540 | 64 | 219 | 3.0 | 10.0 | 0.00 | 0.00 | 0.00 | 67 | 1014.9 |
| 20260505013037 | 65 | 223 | 2.0 | 9.0 | 0.00 | 0.00 | 0.00 | 62 | 1014.9 |
| 20260505011537 | 66 | 228 | 1.0 | 4.0 | 0.00 | 0.00 | 0.00 | 63 | 1014.8 |
| 20260505010045 | 66 | 306 | 2.0 | 7.0 | 0.00 | 0.00 | 0.00 | 63 | 1014.9 |
| 20260505004547 | 67 | 294 | 1.0 | 4.0 | 0.00 | 0.00 | 0.00 | 62 | 1014.8 |
| 20260505003045 | 66 | 261 | 1.0 | 9.0 | 0.00 | 0.00 | 0.00 | 62 | 1014.9 |
| 20260505001537 | 66 | 311 | 2.0 | 8.0 | 0.00 | 0.00 | 0.00 | 61 | 1015.1 |
| 20260505000037 | 67 | 313 | 2.0 | 8.0 | 0.00 | 0.00 | 0.00 | 60 | 1014.9 |
| 20260504234609 | 68 | 246 | 2.0 | 8.0 | 0.00 | 0.00 | 0.00 | 59 | 1014.9 |
| 20260504233043 | 68 | 13 | 3.0 | 7.0 | 0.00 | 0.00 | 0.00 | 59 | 1014.7 |